Radiation Dose at Monitoring Post of Fukushima Daini Nuclear Power Station
Date,Time,MP-1(microSv/h),MP-2(microSv/h),MP-3(microSv/h),MP-4(microSv/h),MP-5(microSv/h),MP-6(microSv/h),MP-7(microSv/h),Wind Direction,Wind Velocity(m/s),Rain
2020/01/14,00:00,0.184,0.164,0.278,0.259,0.255,0.143,0.089,northwest,7.0,No
2020/01/14,00:10,0.184,0.165,0.279,0.257,0.254,0.141,0.088,northwest,7.3,No
2020/01/14,00:20,0.185,0.165,0.277,0.258,0.255,0.141,0.088,northwest,7.0,No
2020/01/14,00:30,0.183,0.165,0.275,0.259,0.253,0.141,0.087,northwest,7.3,No
2020/01/14,00:40,0.183,0.164,0.275,0.257,0.254,0.141,0.086,northwest,7.1,No
2020/01/14,00:50,0.183,0.163,0.275,0.257,0.254,0.140,0.087,northwest,8.1,No
2020/01/14,01:00,0.183,0.164,0.276,0.255,0.253,0.140,0.086,northwest,8.4,Yes
2020/01/14,01:10,0.183,0.163,0.276,0.258,0.254,0.142,0.086,northwest,8.1,Yes
2020/01/14,01:20,0.184,0.166,0.277,0.259,0.255,0.141,0.089,northwest,7.1,Yes
2020/01/14,01:30,0.184,0.165,0.278,0.258,0.255,0.142,0.088,north-northwest,6.3,Yes
2020/01/14,01:40,0.184,0.166,0.276,0.258,0.253,0.141,0.087,north-northwest,6.4,No
2020/01/14,01:50,0.183,0.165,0.276,0.258,0.254,0.142,0.088,north-northwest,7.1,No
2020/01/14,02:00,0.184,0.164,0.277,0.257,0.255,0.141,0.087,north-northwest,7.1,No
2020/01/14,02:10,0.184,0.163,0.277,0.258,0.255,0.141,0.087,north-northwest,6.8,No
2020/01/14,02:20,0.183,0.164,0.276,0.256,0.253,0.141,0.087,north-northwest,6.7,No
2020/01/14,02:30,0.183,0.163,0.276,0.256,0.253,0.140,0.087,north-northwest,7.1,No
2020/01/14,02:40,0.182,0.163,0.275,0.256,0.254,0.140,0.087,north-northwest,7.0,No
2020/01/14,02:50,0.182,0.163,0.275,0.257,0.253,0.141,0.087,north-northwest,6.0,No
2020/01/14,03:00,0.182,0.164,0.275,0.257,0.252,0.141,0.086,north-northwest,5.5,No
2020/01/14,03:10,0.182,0.163,0.277,0.257,0.254,0.140,0.086,north-northwest,4.9,No
2020/01/14,03:20,0.181,0.163,0.274,0.255,0.253,0.140,0.086,north,4.1,No
2020/01/14,03:30,0.183,0.162,0.275,0.255,0.253,0.139,0.087,north-northwest,3.4,No
2020/01/14,03:40,0.182,0.163,0.275,0.256,0.253,0.140,0.087,north,2.6,No
2020/01/14,03:50,0.182,0.163,0.274,0.255,0.254,0.139,0.086,north,3.2,No
2020/01/14,04:00,0.181,0.163,0.275,0.255,0.252,0.141,0.086,north-northwest,4.6,No
2020/01/14,04:10,0.181,0.162,0.275,0.256,0.253,0.140,0.087,northwest,4.1,Yes
2020/01/14,04:20,0.182,0.162,0.274,0.256,0.252,0.140,0.086,north-northwest,3.7,No
2020/01/14,04:30,0.181,0.162,0.276,0.256,0.253,0.140,0.086,north-northwest,3.9,No
2020/01/14,04:40,0.182,0.162,0.275,0.256,0.253,0.141,0.086,north-northwest,3.6,No
2020/01/14,04:50,0.181,0.163,0.274,0.256,0.252,0.141,0.086,north-northwest,3.0,No
2020/01/14,05:00,0.181,0.164,0.275,0.255,0.252,0.140,0.087,northwest,3.7,No
2020/01/14,05:10,0.182,0.162,0.275,0.257,0.253,0.141,0.086,northwest,3.4,No
2020/01/14,05:20,0.182,0.162,0.274,0.255,0.253,0.140,0.087,west-northwest,3.3,No
2020/01/14,05:30,0.181,0.163,0.275,0.256,0.255,0.140,0.086,northwest,2.7,No
2020/01/14,05:40,0.183,0.163,0.276,0.256,0.253,0.141,0.087,northwest,3.4,No
2020/01/14,05:50,0.182,0.163,0.275,0.257,0.254,0.140,0.087,northwest,3.3,No
2020/01/14,06:00,0.182,0.163,0.274,0.256,0.254,0.141,0.087,north-northwest,2.7,No
2020/01/14,06:10,0.183,0.163,0.276,0.256,0.253,0.140,0.086,north-northwest,2.3,No
2020/01/14,06:20,0.182,0.163,0.275,0.256,0.253,0.140,0.087,northeast,0.7,No
2020/01/14,06:30,0.182,0.163,0.276,0.257,0.254,0.141,0.087,northeast,1.0,No
2020/01/14,06:40,0.181,0.163,0.274,0.256,0.253,0.141,0.087,east-northeast,1.1,No
2020/01/14,06:50,0.183,0.163,0.275,0.256,0.253,0.141,0.087,-,CALM,No
2020/01/14,07:00,0.182,0.162,0.274,0.256,0.254,0.141,0.086,-,CALM,No
2020/01/14,07:10,0.182,0.163,0.276,0.256,0.252,0.141,0.087,-,CALM,No
2020/01/14,07:20,0.181,0.163,0.276,0.256,0.253,0.140,0.086,-,CALM,No
2020/01/14,07:30,0.182,0.164,0.275,0.256,0.254,0.140,0.086,-,CALM,No
2020/01/14,07:40,0.182,0.163,0.275,0.256,0.253,0.140,0.086,-,CALM,No
2020/01/14,07:50,0.181,0.162,0.275,0.256,0.254,0.141,0.086,-,CALM,No
2020/01/14,08:00,0.182,0.163,0.275,0.255,0.254,0.141,0.087,-,CALM,No
2020/01/14,08:10,0.183,0.163,0.275,0.256,0.253,0.140,0.086,-,CALM,No
2020/01/14,08:20,0.183,0.163,0.275,0.256,0.254,0.140,0.086,west,0.8,No
2020/01/14,08:30,0.182,0.162,0.275,0.255,0.252,0.140,0.087,-,CALM,No
2020/01/14,08:40,0.182,0.163,0.275,0.256,0.253,0.141,0.086,west-southwest,1.1,No
2020/01/14,08:50,0.182,0.163,0.274,0.255,0.253,0.140,0.086,southwest,0.8,No
2020/01/14,09:00,0.182,0.163,0.275,0.255,0.252,0.140,0.087,-,CALM,No
2020/01/14,09:10,0.181,0.163,0.275,0.256,0.252,0.140,0.086,south,1.2,No
2020/01/14,09:20,0.182,0.162,0.274,0.256,0.253,0.140,0.086,south-southwest,1.2,No
2020/01/14,09:30,0.182,0.162,0.273,0.256,0.252,0.140,0.086,southeast,0.6,No
2020/01/14,09:40,0.181,0.162,0.274,0.256,0.252,0.140,0.087,southeast,1.4,No
2020/01/14,09:50,0.180,0.162,0.275,0.255,0.253,0.140,0.085,southeast,1.8,No
2020/01/14,10:00,0.182,0.161,0.276,0.255,0.254,0.140,0.086,east-southeast,2.0,No
2020/01/14,10:10,0.181,0.160,0.275,0.254,0.252,0.141,0.086,southeast,3.1,No
2020/01/14,10:20,0.181,0.162,0.274,0.257,0.253,0.140,0.086,southeast,3.6,No
2020/01/14,10:30,0.181,0.160,0.273,0.254,0.251,0.140,0.087,south-southeast,2.9,No
2020/01/14,10:40,0.180,0.160,0.274,0.255,0.253,0.141,0.086,south-southeast,3.6,No
2020/01/14,10:50,0.181,0.161,0.274,0.256,0.253,0.140,0.086,south-southeast,2.9,No
2020/01/14,11:00,0.179,0.161,0.275,0.256,0.251,0.140,0.086,southeast,3.2,No
2020/01/14,11:10,0.181,0.161,0.274,0.256,0.252,0.140,0.087,southeast,4.8,No
2020/01/14,11:20,0.180,0.161,0.274,0.256,0.252,0.139,0.087,southeast,4.6,No
2020/01/14,11:30,0.181,0.161,0.276,0.256,0.253,0.140,0.086,south-southeast,3.5,No
2020/01/14,11:40,0.180,0.162,0.273,0.257,0.252,0.139,0.087,southeast,3.1,No
2020/01/14,11:50,0.182,0.162,0.274,0.254,0.254,0.141,0.086,southeast,3.1,No
2020/01/14,12:00,0.180,0.161,0.274,0.255,0.252,0.141,0.086,southeast,3.3,No
2020/01/14,12:10,0.181,0.162,0.274,0.254,0.254,0.140,0.086,southeast,3.1,No
2020/01/14,12:20,0.181,0.162,0.275,0.254,0.252,0.140,0.086,southeast,3.6,No
2020/01/14,12:30,0.183,0.162,0.273,0.256,0.255,0.140,0.086,south-southeast,4.2,No
2020/01/14,12:40,0.180,0.162,0.273,0.256,0.252,0.140,0.087,south,2.9,No
2020/01/14,12:50,0.181,0.161,0.274,0.256,0.254,0.140,0.087,south-southeast,3.6,No
2020/01/14,13:00,0.182,0.162,0.273,0.255,0.253,0.140,0.086,south-southeast,3.8,No
2020/01/14,13:10,0.180,0.162,0.275,0.255,0.253,0.140,0.086,south-southeast,4.5,No
2020/01/14,13:20,0.181,0.162,0.275,0.257,0.253,0.140,0.087,south-southeast,4.4,No
2020/01/14,13:30,0.181,0.163,0.274,0.257,0.253,0.141,0.086,south,3.9,No
2020/01/14,13:40,0.181,0.162,0.276,0.257,0.254,0.139,0.086,south-southeast,3.8,No
2020/01/14,13:50,0.181,0.162,0.274,0.256,0.253,0.140,0.087,south-southeast,2.9,No
2020/01/14,14:00,0.181,0.162,0.274,0.256,0.254,0.140,0.086,south-southeast,3.8,No
2020/01/14,14:10,0.183,0.162,0.274,0.257,0.252,0.141,0.087,south-southeast,3.3,No
2020/01/14,14:20,0.180,0.162,0.273,0.255,0.253,0.139,0.086,south-southeast,4.0,No
2020/01/14,14:30,0.182,0.162,0.275,0.257,0.252,0.140,0.087,south-southeast,3.4,No
2020/01/14,14:40,0.181,0.162,0.273,0.256,0.253,0.140,0.086,south-southeast,4.1,No
2020/01/14,14:50,0.181,0.162,0.275,0.256,0.254,0.139,0.086,south,4.1,No
2020/01/14,15:00,0.182,0.162,0.274,0.258,0.253,0.140,0.086,south-southeast,2.9,No
2020/01/14,15:10,0.180,0.162,0.275,0.254,0.254,0.142,0.086,south,3.2,No
2020/01/14,15:20,0.181,0.162,0.275,0.256,0.255,0.141,0.086,south,3.0,No
2020/01/14,15:30,0.181,0.162,0.275,0.257,0.253,0.140,0.086,south,3.0,No
2020/01/14,15:40,0.181,0.162,0.274,0.256,0.254,0.139,0.087,south,3.4,No
2020/01/14,15:50,0.181,0.163,0.275,0.256,0.253,0.139,0.086,south-southeast,2.4,No
2020/01/14,16:00,0.180,0.162,0.274,0.258,0.253,0.140,0.085,south,3.0,No
2020/01/14,16:10,0.181,0.162,0.273,0.255,0.254,0.140,0.085,south,3.4,No
2020/01/14,16:20,0.180,0.162,0.275,0.256,0.252,0.140,0.086,south,3.6,No
2020/01/14,16:30,0.181,0.162,0.275,0.256,0.254,0.141,0.086,south,3.3,No
2020/01/14,16:40,0.182,0.162,0.273,0.256,0.254,0.140,0.086,south-southwest,3.4,No
2020/01/14,16:50,0.181,0.163,0.274,0.256,0.254,0.140,0.086,south-southwest,4.0,No
2020/01/14,17:00,0.182,0.161,0.274,0.256,0.254,0.140,0.085,south-southwest,3.6,No
2020/01/14,17:10,0.182,0.162,0.274,0.256,0.253,0.140,0.085,southwest,4.3,No
2020/01/14,17:20,0.182,0.163,0.275,0.256,0.252,0.139,0.086,south-southwest,3.7,No
2020/01/14,17:30,0.181,0.161,0.275,0.257,0.254,0.140,0.085,southwest,3.0,No
2020/01/14,17:40,0.182,0.161,0.273,0.257,0.253,0.140,0.085,southwest,2.9,No
2020/01/14,17:50,0.181,0.162,0.275,0.256,0.252,0.140,0.085,west-southwest,2.5,No
2020/01/14,18:00,0.181,0.162,0.275,0.257,0.254,0.140,0.086,west-southwest,2.3,No
2020/01/14,18:10,0.181,0.163,0.274,0.257,0.254,0.140,0.087,west-southwest,2.8,No
2020/01/14,18:20,0.182,0.161,0.274,0.255,0.252,0.140,0.086,west,2.4,No
2020/01/14,18:30,0.182,0.164,0.275,0.257,0.255,0.140,0.086,northwest,4.8,Yes
2020/01/14,18:40,0.181,0.162,0.276,0.257,0.253,0.140,0.087,north-northwest,7.0,Yes
2020/01/14,18:50,0.182,0.163,0.274,0.258,0.254,0.141,0.087,north-northwest,7.0,Yes
2020/01/14,19:00,0.181,0.163,0.274,0.256,0.254,0.141,0.087,north-northwest,6.7,Yes
2020/01/14,19:10,0.182,0.163,0.277,0.256,0.254,0.141,0.087,north-northwest,6.6,No
2020/01/14,19:20,0.183,0.163,0.275,0.258,0.253,0.140,0.087,north-northwest,6.0,No
2020/01/14,19:30,0.182,0.164,0.275,0.257,0.254,0.140,0.087,north-northwest,6.7,No
2020/01/14,19:40,0.182,0.163,0.277,0.257,0.253,0.140,0.086,north-northwest,7.8,No
2020/01/14,19:50,0.183,0.163,0.275,0.257,0.254,0.140,0.087,north-northwest,7.3,No
2020/01/14,20:00,0.182,0.162,0.275,0.256,0.253,0.141,0.087,north-northwest,6.9,No
2020/01/14,20:10,0.182,0.163,0.275,0.256,0.254,0.141,0.086,northwest,7.3,No
2020/01/14,20:20,0.182,0.162,0.275,0.257,0.253,0.140,0.087,north-northwest,7.3,No
2020/01/14,20:30,0.182,0.162,0.275,0.257,0.254,0.140,0.086,north-northwest,7.3,No
2020/01/14,20:40,0.183,0.162,0.275,0.255,0.253,0.140,0.087,north-northwest,6.4,No
2020/01/14,20:50,0.182,0.164,0.276,0.256,0.253,0.140,0.086,north-northwest,6.0,No
2020/01/14,21:00,0.182,0.162,0.276,0.255,0.253,0.140,0.086,north-northwest,6.7,No
2020/01/14,21:10,0.182,0.161,0.275,0.256,0.254,0.140,0.086,north-northwest,7.4,No
2020/01/14,21:20,0.181,0.163,0.274,0.256,0.252,0.140,0.086,northwest,8.1,No
2020/01/14,21:30,0.181,0.163,0.275,0.257,0.252,0.140,0.085,northwest,8.4,No
2020/01/14,21:40,0.181,0.161,0.274,0.256,0.252,0.140,0.086,northwest,9.0,No
2020/01/14,21:50,0.181,0.162,0.275,0.255,0.253,0.140,0.086,northwest,8.1,No
2020/01/14,22:00,0.181,0.163,0.275,0.256,0.253,0.139,0.086,northwest,8.4,No
2020/01/14,22:10,0.181,0.161,0.275,0.256,0.252,0.140,0.086,northwest,8.1,No
2020/01/14,22:20,0.182,0.161,0.275,0.257,0.253,0.140,0.086,northwest,8.1,No
2020/01/14,22:30,0.181,0.162,0.275,0.256,0.253,0.140,0.086,north-northwest,8.1,No
2020/01/14,22:40,0.181,0.164,0.276,0.255,0.252,0.140,0.086,north-northwest,8.1,No
2020/01/14,22:50,0.182,0.162,0.275,0.255,0.253,0.140,0.086,northwest,7.3,No
2020/01/14,23:00,0.183,0.162,0.275,0.256,0.254,0.140,0.087,northwest,7.1,No
2020/01/14,23:10,0.181,0.162,0.275,0.256,0.253,0.140,0.086,northwest,8.4,No
2020/01/14,23:20,0.181,0.163,0.276,0.256,0.253,0.139,0.086,northwest,8.1,No
2020/01/14,23:30,0.183,0.161,0.275,0.256,0.252,0.140,0.086,north-northwest,7.1,No
2020/01/14,23:40,0.181,0.162,0.274,0.258,0.253,0.140,0.086,north-northwest,7.3,No
2020/01/14,23:50,0.183,0.163,0.273,0.256,0.253,0.140,0.085,northwest,6.8,No
